Погода в Конты-Вроцлавске

Польша     51°01′33″N   16°46′00″E
темп.,
°C
ветер,
м/с
пор.,
м/с
влажн.,
%
обл.,
%
осадки,
мм/ч
давл.,
гПа
погр.,
м
5 августа, чт
чт523:00+17ююз0174100 0.0 101313
02:00+16юз0078100 0.0 101211
05:00+15в1179100 0.0 101111
08:00+17юв2277100 0.1 1010252
11:00+16юв3385100 1.6 1010267
14:00+16всв2488100 4.9 1010409
17:00+15св3691100 1.9 1009505
20:00+14с2594100 2.3 1009286
6 августа, пт
пт623:00+14сз3595100 0.0 1008198
02:00+14ссз1291100 0.1 100881
05:00+14зсз2492100 0.4 1008134
08:00+15сз2388100 0.6 1008141
11:00+17юз227414 0.0 1008395
14:00+24с12473 0.0 10071583
17:00+22ююв225476 0.0 100762
20:00+20зюз226671 0.2 100752
7 августа, сб
сб723:00+16з33825 0.0 100846
02:00+16юз34820 0.0 100952
05:00+14зюз33851 0.0 100942
08:00+18юз347278 0.0 1010257
11:00+22зюз335652 0.0 10101213
14:00+25юз344462 0.0 10091622
17:00+26ююз454184 0.0 10071674
20:00+23ююв225994 0.0 100712
8 августа, вс
вс823:00+19юв31169100 0.0 1006235
02:00+18зюз577597 0.1 1007215
05:00+16зсз71583100 0.0 1009573
08:00+19з7117093 0.0 1012945
11:00+22з464954 0.0 10121318
14:00+25сз3542100 0.0 10132052
17:00+23зсз4749100 0.0 1014309
20:00+20зсз3762100 0.0 1016233
9 августа, пн
пн923:00+18юз5961100 0.0 1018361
02:00+15зюз39770 0.0 1018229
05:00+13зюз36860 0.0 1019114
08:00+17зюз36670 0.0 1020395
11:00+21з45455 0.0 10201514
14:00+24з243699 0.0 10202435
17:00+23сз344498 0.0 1019473
20:00+20зсз355170 0.0 1020113